Starlink 2226

operational
NORAD ID: 48010 Int'l Des: 2021-024 Owner: SPXS Country: US Constellation: starlink
LEOCIRCULAR

Starlink 2226について

説明を読み込み中...

リアルタイム位置

3D地球を読み込み中...

次回通過

高度履歴

Altitude vs Time

uPlot chart will show altitude changes over time

軌道要素

1 48010U 21024AK 26062.25897807 .00153827 00000-0 51208-2 0 9998
2 48010 53.1588 2.2919 0001313 92.3914 267.7237 15.30063556273587
Epoch: Mar 3, 2026 • Age: 33 hours

現在のステータス

高度 474.9 km
速度 7.63 km/s
衛星直下点 6.05°N, 66.08°E
打ち上げ日 Mar 24, 2021
運用期間 4.9 years
タイプ internet

技術仕様

分類 Payload
質量 260.00 kg
乾燥質量 248.00 kg
総質量 260.00 kg
長さ 0.20 m
直径 2.80 m
スパン 9.00 m
形状 Box + pan
製造者 SPXS
バスタイプ Starlink
フェーズステータス In Orbit
所有者/国 SPXS/US

大規模コンステレーション

Loading constellations...